User: anonymous   Login
Location: ???????
(55.9142°N, 37.8256°E)
Time: 22:41:52
(UTC+00:00)
Language:

RESURS DK-1 - Orbit

View from above orbital plane
View from above orbital plane
View from above satellite
View from above satellite

Ground track
Ground track

The orbit data is extracted from the following two-line orbital elements,

1 29228U 06021A   24168.95415328  .00003324  00000-0  22631-3 0  9999
2 29228  69.9363  62.3505 0004360 332.9393  27.1542 15.07307909992289
Epoch (UTC): 16 June 2024 22:53:58
Eccentricity: 0.0004360
inclination: 69.9363°
perigee height: 541 km
apogee height: 547 km
right ascension of ascending node: 62.3505°
argument of perigee: 332.9393°
revolutions per day: 15.07307909
mean anomaly at epoch: 27.1542°
orbit number at epoch: 99228

The dashed part of the orbit path shows where the satellite is in the earth's shadow,  

DLR